Location: Arrington
(35.8681°N, 86.7092°W)
Time: 04:28:54
(UTC+00:00)

ATLAS 2AS CENTAUR R/B - Pass Details

Date: 29 February 2020
Orbit: 929 x 1283 km, 63.7° (Epoch: 03 April)

Event Time Altitude Azimuth Distance (km) Brightness Sun altitude
Rises 11:38:51 0° 324° (NW) 4,115 5.4 -8.6°
Reaches altitude 10° 11:41:44 10° 321° (NW) 3,101 4.7 -8.0°
Maximum altitude 11:48:56 57° 245° (WSW) 1,283 2.9 -6.6°
Drops below altitude 10° 11:55:29 10° 168° (SSE) 2,833 5.2 -5.3°
Sets 11:58:01 0° 164° (SSE) 3,736 5.9 -4.7°
